If you wish to contribute or participate in the discussions about articles you are invited to join SKYbrary as a registered user

 Actions

El Golea Airport

From SKYbrary Wiki

DAUE
Airport
ICAO: DAUE – IATA: ELG
Summary
Name El Golea Airport
Region Africa
Territory Algeria DZ.gif
Location , Ghardaia
Serving El Golea
Elevation 398.069 m
1,306 ft
1,306 ft398.069 m
Type medium airport
Coordinates 30° 34' 16.66" N, 2° 51' 34.51" E
Runways
Designator Length Width Surface ROPS
10/28 1800 m5,905.512 ft
45 m147.638 ft
ASP /
18/36 3000 m9,842.52 ft
45 m147.638 ft
ASP /


METAR
Observation DAUE 050200Z 36007KT 5000 NSC 27/M01 Q1010
Station El Golea
Date/Time 05 June 2020 02:00:00
Wind direction 360°
Wind speed 07 kts
Lowest cloud amount nil significant cloud
Temperature 27°C
Dew point
Humidity 15%
QNH 1010 hPa
Weather condition n/a